Location: Unspecified
(0.0000°N, 0.0000°E)
Time: 23:35:51
(UTC+00:00)

SR - All Passes

Search period start: 01 October 2020 00:00
Search period end: 11 October 2020 00:00
Orbit: 583 x 873 km, 66.7° (Epoch: 01 October)

Date Brightness Start Highest point End Pass type
(mag) Time Alt. Az. Time Alt. Az. Time Alt. Az.
01 Oct - 07:41:45 10° SW 07:46:07 39° WNW 07:50:12 10° N daylight
01 Oct - 18:24:49 10° NNE 18:29:24 29° ENE 18:34:16 10° SE visible
01 Oct - 20:07:18 10° WNW 20:11:17 20° WSW 20:15:27 10° SSW visible
02 Oct - 06:51:49 10° SSW 06:56:32 68° ESE 07:00:52 10° NNE daylight
02 Oct - 17:38:11 10° NE 17:39:50 11° ENE 17:41:30 10° E daylight
02 Oct - 19:16:20 10° NW 19:21:33 49° WSW 19:27:06 10° S visible
03 Oct - 06:03:07 10° SSE 06:06:50 23° ESE 06:10:21 10° ENE daylight
03 Oct - 07:45:55 10° WSW 07:48:32 15° WNW 07:51:03 10° NW daylight
03 Oct - 18:26:34 10° NNW 18:31:54 67° ENE 18:37:37 10° SSE visible
04 Oct - 06:54:34 10° SW 06:58:59 43° WNW 07:03:07 10° N daylight
04 Oct - 17:37:50 10° NNE 17:42:19 27° ENE 17:47:03 10° SE daylight
04 Oct - 19:19:58 10° WNW 19:24:10 22° WSW 19:28:33 10° SSW visible
05 Oct - 06:04:45 10° S 06:09:24 61° ESE 06:13:41 10° NNE daylight
05 Oct - 16:52:03 10° ENE 16:52:44 10° ENE 16:53:24 10° ENE daylight
05 Oct - 18:29:09 10° NNW 18:34:26 54° WSW 18:40:05 10° S visible
06 Oct - 05:16:11 10° SSE 05:19:41 21° ESE 05:23:01 10° ENE visible
06 Oct - 06:58:32 10° WSW 07:01:25 16° WNW 07:04:11 10° NNW daylight
06 Oct - 17:39:28 10° N 17:44:48 62° ENE 17:50:29 10° SSE daylight
07 Oct - 06:07:23 10° SW 06:11:51 48° WNW 06:16:02 10° N daylight
07 Oct - 16:50:51 10° NNE 16:55:12 25° ENE 16:59:48 10° SE daylight
07 Oct - 18:32:40 10° WNW 18:37:03 24° WSW 18:41:39 10° SSW visible
08 Oct - 05:17:41 10° S 05:22:15 54° ESE 05:26:30 10° NNE visible
08 Oct - 17:41:58 10° NNW 17:47:19 59° WSW 17:53:02 10° S daylight
09 Oct - 04:29:16 10° SSE 04:32:32 19° ESE 04:35:39 10° ENE visible
09 Oct - 06:11:10 10° WSW 06:14:17 18° WNW 06:17:16 10° NNW daylight
09 Oct - 16:52:23 10° N 16:57:41 56° ENE 17:03:21 10° SSE daylight
09 Oct - 18:38:48 10° WSW 18:39:43 10° WSW 18:40:38 10° WSW visible
10 Oct - 05:20:13 10° SSW 05:24:44 53° WNW 05:28:56 10° N visible
10 Oct - 16:03:53 10° NNE 16:08:06 23° ENE 16:12:31 10° ESE daylight
10 Oct - 17:45:22 10° NW 17:49:56 27° WSW 17:54:43 10° SSW daylight
